Powrót do katalogu

CZ-6A DEB

AktywnyPO
NORAD 54894·DEBRIS·🇨🇳 China

Wystrzelony Nov 11, 2022 z Taiyuan Satellite Launch Center

Loading…

Następne Przeloty (najbliższe 24 godziny)

TLE

ŚwieżeSource: Space-Track

Epoka: Sep 14, 2026, 05:29 UTC

1 54894U 22151QF  26257.22895739  .00019183  00000-0  16787-2 0  9991
2 54894  98.6147 348.1444 0045826 289.6518  69.9758 14.95961011201249

Śledź CZ-6A DEB w czasie rzeczywistym z AllMySat

Download on the App Store